QPF
0.07 0.07 0.06 0.06 0.04 0.05 0.07 0.08 0.06 0.07 0.09 0.10 0.06 0.04 0.05 0.06 0.06 0.07 0.08 0.08 0.09 0.10 0.11 0.12 0.11 0.13 0.14 0.14 0.11 0.11 0.09 0.12 0.12 0.13 0.11 0.10 0.11 0.11 0.08 0.07 0.06 0.05 0.05
0.05 0.06 0.05 0.05 0.04 0.05 0.06 0.06 0.05 0.05 0.06 0.09 0.06 0.04 0.04 0.04 0.04 0.05 0.05 0.05 0.06 0.09 0.10 0.11 0.11 0.10 0.10 0.11 0.12 0.12 0.11 0.12 0.16 0.16 0.14 0.10 0.11 0.14 0.14 0.12 0.10 0.07 0.06
0.05 0.06 0.06 0.06 0.06 0.05 0.05 0.04 0.04 0.06 0.07 0.07 0.06 0.05 0.03 0.04 0.03 0.04 0.04 0.06 0.07 0.07 0.08 0.09 0.08 0.08 0.07 0.07 0.10 0.09 0.08 0.07 0.09 0.09 0.11 0.10 0.11 0.10 0.11 0.14 0.14 0.11 0.07
0.05 0.04 0.04 0.05 0.06 0.04 0.04 0.04 0.04 0.05 0.06 0.06 0.07 0.07 0.04 0.04 0.03 0.03 0.02 0.03 0.06 0.05 0.05 0.06 0.06 0.06 0.06 0.06 0.07 0.08 0.07 0.06 0.06 0.06 0.08 0.12 0.12 0.11 0.10 0.10 0.13 0.13 0.11
0.03 0.04 0.04 0.05 0.05 0.05 0.04 0.03 0.03 0.04 0.05 0.08 0.08 0.06 0.04 0.03 0.03 0.02 0.01 0.01 0.03 0.04 0.05 0.05 0.05 0.06 0.06 0.07 0.07 0.07 0.07 0.07 0.07 0.08 0.09 0.11 0.13 0.11 0.10 0.09 0.11 0.12 0.13
0.05 0.06 0.05 0.05 0.05 0.05 0.05 0.04 0.04 0.04 0.05 0.07 0.05 0.04 0.04 0.03 0.03 0.02 0.02 0.02 0.03 0.02 0.04 0.05 0.07 0.08 0.07 0.07 0.08 0.06 0.06 0.06 0.06 0.06 0.07 0.09 0.13 0.16 0.15 0.12 0.10 0.09 0.10
0.04 0.05 0.06 0.06 0.06 0.07 0.07 0.05 0.05 0.04 0.04 0.05 0.04 0.04 0.04 0.03 0.03 0.03 0.02 0.03 0.03 0.03 0.03 0.06 0.09 0.10 0.08 0.06 0.05 0.05 0.06 0.07 0.08 0.07 0.07 0.08 0.10 0.13 0.14 0.13 0.12 0.10 0.09
0.03 0.04 0.07 0.07 0.07 0.08 0.07 0.06 0.05 0.04 0.04 0.05 0.05 0.04 0.04 0.04 0.03 0.02 0.02 0.03 0.03 0.04 0.04 0.04 0.06 0.08 0.08 0.06 0.04 0.03 0.05 0.09 0.11 0.10 0.09 0.08 0.08 0.10 0.13 0.11 0.12 0.12 0.12
0.03 0.03 0.03 0.04 0.05 0.04 0.04 0.05 0.04 0.05 0.05 0.04 0.06 0.07 0.05 0.05 0.04 0.03 0.02 0.02 0.04 0.06 0.06 0.04 0.04 0.05 0.04 0.06 0.06 0.04 0.05 0.06 0.10 0.10 0.08 0.07 0.06 0.05 0.07 0.10 0.10 0.11 0.15
0.03 0.04 0.03 0.03 0.04 0.04 0.05 0.04 0.04 0.05 0.07 0.05 0.05 0.05 0.05 0.04 0.05 0.05 0.03 0.03 0.03 0.04 0.05 0.04 0.04 0.05 0.05 0.05 0.05 0.04 0.04 0.05 0.06 0.06 0.07 0.06 0.05 0.03 0.04 0.07 0.09 0.10 0.12
0.04 0.04 0.03 0.03 0.04 0.04 0.06 0.04 0.06 0.06 0.06 0.06 0.05 0.04 0.03 0.03 0.04 0.04 0.05 0.05 0.04 0.04 0.04 0.05 0.05 0.07 0.07 0.06 0.05 0.04 0.05 0.06 0.06 0.06 0.06 0.06 0.05 0.05 0.04 0.06 0.09 0.11 0.11
0.05 0.04 0.03 0.03 0.03 0.04 0.06 0.07 0.07 0.06 0.06 0.06 0.06 0.05 0.04 0.02 0.03 0.04 0.04 0.04 0.04 0.03 0.04 0.05 0.06 0.07 0.07 0.06 0.05 0.04 0.06 0.07 0.07 0.06 0.06 0.07 0.07 0.06 0.05 0.04 0.06 0.08 0.06
0.04 0.04 0.03 0.04 0.03 0.03 0.04 0.06 0.06 0.06 0.05 0.06 0.06 0.05 0.04 0.03 0.03 0.04 0.04 0.04 0.04 0.02 0.02 0.03 0.05 0.05 0.05 0.06 0.07 0.05 0.06 0.06 0.06 0.06 0.06 0.06 0.07 0.06 0.06 0.05 0.05 0.06 0.05
0.02 0.02 0.03 0.03 0.04 0.04 0.03 0.05 0.04 0.05 0.06 0.07 0.06 0.05 0.05 0.03 0.03 0.03 0.04 0.05 0.04 0.03 0.02 0.03 0.04 0.05 0.04 0.05 0.07 0.06 0.06 0.06 0.06 0.05 0.05 0.05 0.06 0.06 0.05 0.04 0.04 0.04 0.03
0.02 0.03 0.03 0.04 0.04 0.04 0.04 0.04 0.04 0.05 0.06 0.06 0.06 0.05 0.05 0.04 0.04 0.03 0.04 0.05 0.04 0.04 0.03 0.02 0.02 0.04 0.05 0.05 0.07 0.05 0.08 0.08 0.06 0.06 0.05 0.04 0.04 0.03 0.02 0.03 0.02 0.02 0.02
0.01 0.03 0.03 0.04 0.04 0.03 0.04 0.04 0.04 0.04 0.04 0.06 0.07 0.07 0.06 0.06 0.06 0.05 0.04 0.03 0.03 0.03 0.02 0.02 0.03 0.03 0.04 0.05 0.08 0.06 0.07 0.08 0.04 0.05 0.04 0.04 0.02 0.01 0.01 0.01 0.01 0.01 0.01
0.02 0.03 0.03 0.03 0.03 0.03 0.03 0.04 0.05 0.05 0.05 0.06 0.06 0.05 0.05 0.05 0.06 0.06 0.04 0.03 0.02 0.03 0.02 0.02 0.03 0.03 0.03 0.05 0.08 0.08 0.06 0.06 0.04 0.04 0.04 0.04 0.01 0.01 0.00 0.00 0.00 0.00 0.00
0.01 0.02 0.02 0.02 0.03 0.03 0.03 0.03 0.03 0.03 0.03 0.02 0.02 0.03 0.04 0.05 0.05 0.05 0.06 0.05 0.04 0.04 0.02 0.02 0.03 0.03 0.04 0.06 0.07 0.08 0.06 0.03 0.03 0.03 0.04 0.05 0.03 0.01 0.01 0.01 0.01 0.00 0.01
0.01 0.01 0.01 0.02 0.02 0.03 0.03 0.03 0.02 0.02 0.03 0.02 0.02 0.02 0.03 0.05 0.04 0.05 0.06 0.05 0.05 0.04 0.04 0.03 0.03 0.04 0.04 0.05 0.07 0.06 0.04 0.03 0.03 0.03 0.04 0.05 0.04 0.02 0.01 0.01 0.01 0.01 0.01
0.01 0.01 0.01 0.01 0.02 0.02 0.02 0.03 0.02 0.02 0.02 0.02 0.02 0.02 0.02 0.03 0.04 0.05 0.06 0.06 0.06 0.05 0.05 0.04 0.03 0.03 0.04 0.05 0.05 0.04 0.04 0.04 0.04 0.04 0.05 0.07 0.05 0.02 0.02 0.02 0.01 0.01 0.01
0.01 0.01 0.02 0.02 0.02 0.01 0.01 0.01 0.01 0.02 0.02 0.02 0.02 0.02 0.02 0.02 0.03 0.05 0.04 0.06 0.06 0.04 0.04 0.04 0.04 0.04 0.04 0.04 0.04 0.04 0.04 0.05 0.06 0.06 0.07 0.08 0.08 0.05 0.04 0.03 0.02 0.01 0.01
0.02 0.03 0.02 0.02 0.02 0.01 0.01 0.01 0.02 0.02 0.03 0.03 0.03 0.04 0.03 0.03 0.03 0.03 0.03 0.04 0.04 0.03 0.03 0.04 0.03 0.04 0.05 0.05 0.05 0.05 0.04 0.05 0.06 0.07 0.07 0.08 0.09 0.06 0.04 0.03 0.02 0.01 0.01
0.05 0.04 0.03 0.03 0.03 0.03 0.02 0.02 0.03 0.02 0.03 0.03 0.04 0.04 0.03 0.02 0.03 0.04 0.04 0.03 0.03 0.03 0.03 0.03 0.02 0.03 0.05 0.06 0.05 0.04 0.04 0.05 0.06 0.07 0.07 0.07 0.09 0.07 0.03 0.02 0.02 0.02 0.02
0.04 0.05 0.05 0.05 0.05 0.05 0.05 0.06 0.05 0.04 0.03 0.04 0.04 0.03 0.03 0.02 0.03 0.03 0.04 0.04 0.04 0.03 0.03 0.02 0.02 0.04 0.05 0.05 0.04 0.04 0.05 0.06 0.07 0.07 0.07 0.08 0.10 0.08 0.03 0.03 0.02 0.01 0.01
0.07 0.08 0.08 0.08 0.08 0.08 0.09 0.10 0.10 0.08 0.06 0.05 0.04 0.03 0.03 0.02 0.03 0.03 0.03 0.04 0.04 0.03 0.02 0.03 0.02 0.02 0.02 0.02 0.02 0.03 0.04 0.05 0.06 0.06 0.07 0.08 0.09 0.07 0.04 0.04 0.03 0.02 0.02
0.07 0.07 0.08 0.10 0.12 0.16 0.18 0.14 0.12 0.09 0.06 0.04 0.03 0.03 0.03 0.03 0.05 0.06 0.05 0.04 0.03 0.02 0.02 0.02 0.02 0.02 0.02 0.02 0.02 0.03 0.04 0.06 0.07 0.07 0.06 0.07 0.08 0.09 0.06 0.04 0.03 0.03 0.03
MSLP
1016.32 1016.29 1016.25 1016.23 1016.24 1016.30 1016.40 1016.53 1016.68 1016.81 1016.93 1017.00 1017.05 1017.07 1017.10 1017.13 1017.17 1017.20 1017.21 1017.14 1016.99 1016.74 1016.40 1016.01 1015.64 1015.36 1015.22 1015.28 1015.55 1015.99 1016.55 1017.16 1017.74 1018.23 1018.60 1018.85 1018.99 1019.08 1019.15 1019.25 1019.40 1019.60 1019.84
1016.45 1016.44 1016.42 1016.42 1016.45 1016.52 1016.64 1016.80 1016.97 1017.15 1017.30 1017.41 1017.49 1017.54 1017.57 1017.59 1017.61 1017.61 1017.57 1017.48 1017.31 1017.05 1016.73 1016.37 1016.03 1015.76 1015.63 1015.67 1015.88 1016.25 1016.72 1017.24 1017.74 1018.17 1018.51 1018.74 1018.90 1019.01 1019.13 1019.26 1019.45 1019.68 1019.93
1016.57 1016.57 1016.57 1016.59 1016.65 1016.74 1016.88 1017.06 1017.26 1017.46 1017.64 1017.78 1017.88 1017.94 1017.98 1017.99 1017.99 1017.96 1017.90 1017.79 1017.62 1017.39 1017.11 1016.80 1016.51 1016.29 1016.18 1016.21 1016.37 1016.66 1017.04 1017.46 1017.86 1018.22 1018.50 1018.72 1018.89 1019.03 1019.18 1019.36 1019.58 1019.83 1020.10
1016.63 1016.65 1016.68 1016.74 1016.82 1016.94 1017.11 1017.30 1017.52 1017.73 1017.93 1018.08 1018.20 1018.27 1018.30 1018.31 1018.29 1018.25 1018.17 1018.07 1017.92 1017.73 1017.51 1017.28 1017.06 1016.90 1016.82 1016.84 1016.97 1017.19 1017.48 1017.79 1018.10 1018.38 1018.62 1018.81 1018.98 1019.15 1019.33 1019.55 1019.80 1020.08 1020.35
1016.60 1016.66 1016.73 1016.82 1016.94 1017.10 1017.29 1017.50 1017.73 1017.95 1018.15 1018.31 1018.43 1018.50 1018.54 1018.54 1018.51 1018.46 1018.39 1018.30 1018.19 1018.05 1017.90 1017.74 1017.61 1017.51 1017.47 1017.51 1017.61 1017.78 1017.99 1018.22 1018.45 1018.66 1018.85 1019.02 1019.19 1019.37 1019.58 1019.82 1020.10 1020.39 1020.68
1016.49 1016.58 1016.69 1016.84 1017.01 1017.20 1017.42 1017.65 1017.88 1018.10 1018.30 1018.46 1018.58 1018.65 1018.69 1018.69 1018.66 1018.62 1018.56 1018.49 1018.41 1018.32 1018.23 1018.16 1018.10 1018.07 1018.08 1018.14 1018.24 1018.37 1018.53 1018.70 1018.87 1019.02 1019.17 1019.33 1019.49 1019.68 1019.90 1020.16 1020.44 1020.74 1021.03
1016.31 1016.42 1016.58 1016.78 1017.00 1017.23 1017.48 1017.72 1017.96 1018.18 1018.37 1018.52 1018.64 1018.71 1018.75 1018.75 1018.73 1018.70 1018.65 1018.60 1018.55 1018.51 1018.48 1018.47 1018.48 1018.52 1018.58 1018.67 1018.79 1018.92 1019.06 1019.19 1019.32 1019.45 1019.57 1019.70 1019.85 1020.04 1020.26 1020.51 1020.79 1021.08 1021.37
1016.07 1016.21 1016.41 1016.64 1016.90 1017.17 1017.44 1017.70 1017.94 1018.16 1018.34 1018.49 1018.60 1018.68 1018.72 1018.74 1018.73 1018.70 1018.67 1018.64 1018.61 1018.61 1018.62 1018.66 1018.73 1018.82 1018.94 1019.07 1019.22 1019.37 1019.51 1019.65 1019.77 1019.88 1019.99 1020.11 1020.24 1020.41 1020.61 1020.84 1021.11 1021.38 1021.65
1015.80 1015.95 1016.16 1016.42 1016.71 1017.00 1017.29 1017.56 1017.80 1018.01 1018.19 1018.34 1018.46 1018.55 1018.60 1018.63 1018.63 1018.62 1018.60 1018.58 1018.57 1018.58 1018.62 1018.70 1018.81 1018.95 1019.11 1019.30 1019.49 1019.68 1019.85 1020.01 1020.15 1020.27 1020.38 1020.49 1020.61 1020.75 1020.92 1021.12 1021.35 1021.60 1021.85
1015.50 1015.63 1015.84 1016.10 1016.40 1016.70 1016.99 1017.26 1017.51 1017.72 1017.91 1018.07 1018.20 1018.30 1018.37 1018.41 1018.43 1018.43 1018.42 1018.41 1018.41 1018.43 1018.49 1018.58 1018.72 1018.90 1019.11 1019.34 1019.58 1019.82 1020.05 1020.25 1020.43 1020.57 1020.69 1020.80 1020.91 1021.03 1021.17 1021.33 1021.51 1021.72 1021.94
1015.17 1015.27 1015.45 1015.69 1015.97 1016.26 1016.54 1016.81 1017.06 1017.28 1017.47 1017.64 1017.79 1017.91 1018.01 1018.07 1018.11 1018.13 1018.13 1018.12 1018.12 1018.15 1018.21 1018.32 1018.48 1018.68 1018.93 1019.21 1019.51 1019.80 1020.09 1020.35 1020.57 1020.76 1020.91 1021.03 1021.13 1021.23 1021.34 1021.46 1021.60 1021.77 1021.96
1014.78 1014.85 1014.98 1015.18 1015.42 1015.68 1015.95 1016.21 1016.45 1016.68 1016.88 1017.07 1017.24 1017.38 1017.50 1017.60 1017.66 1017.69 1017.71 1017.71 1017.73 1017.76 1017.82 1017.94 1018.11 1018.33 1018.61 1018.93 1019.27 1019.62 1019.97 1020.29 1020.57 1020.81 1021.00 1021.15 1021.27 1021.36 1021.45 1021.55 1021.66 1021.79 1021.95
1014.35 1014.36 1014.44 1014.59 1014.79 1015.01 1015.25 1015.49 1015.73 1015.95 1016.17 1016.37 1016.55 1016.72 1016.87 1016.99 1017.08 1017.14 1017.17 1017.19 1017.22 1017.26 1017.33 1017.45 1017.63 1017.87 1018.17 1018.51 1018.90 1019.30 1019.70 1020.09 1020.44 1020.73 1020.98 1021.17 1021.32 1021.43 1021.52 1021.61 1021.70 1021.82 1021.95
1013.85 1013.82 1013.86 1013.95 1014.10 1014.28 1014.49 1014.71 1014.93 1015.15 1015.36 1015.57 1015.77 1015.95 1016.12 1016.26 1016.38 1016.47 1016.53 1016.57 1016.62 1016.67 1016.76 1016.89 1017.07 1017.32 1017.64 1018.00 1018.42 1018.86 1019.31 1019.76 1020.16 1020.53 1020.84 1021.10 1021.29 1021.45 1021.56 1021.67 1021.76 1021.87 1022.00
1013.30 1013.25 1013.25 1013.30 1013.41 1013.56 1013.73 1013.92 1014.11 1014.31 1014.51 1014.72 1014.91 1015.11 1015.28 1015.45 1015.59 1015.70 1015.80 1015.87 1015.95 1016.03 1016.13 1016.27 1016.47 1016.72 1017.04 1017.42 1017.86 1018.33 1018.82 1019.31 1019.78 1020.21 1020.59 1020.91 1021.18 1021.39 1021.56 1021.70 1021.83 1021.95 1022.08
1012.70 1012.65 1012.64 1012.68 1012.76 1012.87 1013.01 1013.17 1013.33 1013.50 1013.68 1013.86 1014.04 1014.23 1014.41 1014.58 1014.74 1014.88 1015.01 1015.12 1015.22 1015.33 1015.46 1015.62 1015.82 1016.08 1016.41 1016.79 1017.23 1017.72 1018.23 1018.76 1019.28 1019.77 1020.21 1020.61 1020.96 1021.25 1021.49 1021.69 1021.86 1022.02 1022.17
1012.07 1012.05 1012.05 1012.09 1012.16 1012.26 1012.37 1012.50 1012.63 1012.76 1012.90 1013.04 1013.20 1013.36 1013.53 1013.70 1013.87 1014.03 1014.19 1014.33 1014.46 1014.60 1014.75 1014.93 1015.15 1015.41 1015.73 1016.11 1016.55 1017.04 1017.56 1018.10 1018.65 1019.19 1019.70 1020.16 1020.58 1020.95 1021.27 1021.55 1021.79 1022.00 1022.19
1011.42 1011.45 1011.49 1011.55 1011.63 1011.72 1011.81 1011.91 1011.99 1012.08 1012.18 1012.28 1012.40 1012.53 1012.68 1012.84 1013.01 1013.19 1013.36 1013.52 1013.69 1013.85 1014.02 1014.21 1014.43 1014.69 1015.01 1015.38 1015.80 1016.28 1016.80 1017.35 1017.91 1018.47 1019.01 1019.53 1020.01 1020.45 1020.84 1021.20 1021.52 1021.81 1022.06
1010.77 1010.85 1010.94 1011.04 1011.14 1011.23 1011.31 1011.38 1011.43 1011.48 1011.53 1011.58 1011.66 1011.76 1011.88 1012.03 1012.19 1012.37 1012.54 1012.72 1012.89 1013.06 1013.24 1013.44 1013.66 1013.91 1014.22 1014.57 1014.98 1015.44 1015.93 1016.47 1017.02 1017.58 1018.14 1018.68 1019.20 1019.69 1020.16 1020.59 1021.00 1021.37 1021.71
1010.12 1010.27 1010.41 1010.55 1010.68 1010.78 1010.85 1010.90 1010.92 1010.93 1010.93 1010.95 1010.99 1011.06 1011.15 1011.28 1011.42 1011.58 1011.74 1011.91 1012.07 1012.24 1012.41 1012.59 1012.80 1013.05 1013.34 1013.67 1014.06 1014.49 1014.96 1015.46 1015.99 1016.53 1017.07 1017.61 1018.15 1018.68 1019.19 1019.69 1020.18 1020.64 1021.08
1009.51 1009.71 1009.91 1010.09 1010.24 1010.35 1010.42 1010.45 1010.44 1010.42 1010.40 1010.38 1010.39 1010.43 1010.50 1010.59 1010.70 1010.83 1010.97 1011.10 1011.23 1011.37 1011.51 1011.67 1011.86 1012.08 1012.35 1012.67 1013.03 1013.43 1013.87 1014.34 1014.83 1015.33 1015.84 1016.36 1016.88 1017.42 1017.96 1018.52 1019.08 1019.64 1020.18
1008.97 1009.22 1009.45 1009.66 1009.83 1009.95 1010.01 1010.03 1010.01 1009.97 1009.92 1009.88 1009.87 1009.87 1009.91 1009.97 1010.05 1010.13 1010.21 1010.28 1010.36 1010.44 1010.53 1010.65 1010.80 1011.00 1011.25 1011.55 1011.89 1012.27 1012.69 1013.12 1013.56 1014.02 1014.48 1014.96 1015.46 1015.98 1016.54 1017.13 1017.75 1018.40 1019.06
1008.55 1008.83 1009.09 1009.31 1009.49 1009.60 1009.66 1009.66 1009.63 1009.57 1009.51 1009.45 1009.42 1009.40 1009.40 1009.42 1009.44 1009.45 1009.46 1009.46 1009.45 1009.45 1009.48 1009.54 1009.65 1009.82 1010.04 1010.33 1010.66 1011.03 1011.43 1011.83 1012.25 1012.66 1013.08 1013.51 1013.97 1014.47 1015.02 1015.63 1016.30 1017.02 1017.78
1008.30 1008.59 1008.85 1009.08 1009.25 1009.35 1009.40 1009.39 1009.34 1009.27 1009.19 1009.12 1009.06 1009.01 1008.97 1008.93 1008.87 1008.81 1008.72 1008.62 1008.51 1008.42 1008.36 1008.35 1008.41 1008.55 1008.76 1009.03 1009.37 1009.74 1010.14 1010.54 1010.93 1011.32 1011.71 1012.10 1012.52 1012.99 1013.53 1014.14 1014.84 1015.62 1016.45
1008.24 1008.53 1008.79 1009.00 1009.15 1009.23 1009.26 1009.23 1009.16 1009.07 1008.97 1008.87 1008.78 1008.69 1008.59 1008.48 1008.34 1008.18 1007.98 1007.77 1007.55 1007.36 1007.21 1007.13 1007.13 1007.24 1007.43 1007.71 1008.06 1008.45 1008.86 1009.28 1009.68 1010.06 1010.43 1010.80 1011.20 1011.65 1012.16 1012.77 1013.48 1014.28 1015.16
1008.37 1008.64 1008.88 1009.07 1009.19 1009.25 1009.24 1009.18 1009.09 1008.97 1008.84 1008.70 1008.57 1008.42 1008.26 1008.07 1007.84 1007.56 1007.25 1006.93 1006.60 1006.30 1006.06 1005.91 1005.87 1005.94 1006.12 1006.41 1006.78 1007.20 1007.64 1008.09 1008.51 1008.91 1009.29 1009.66 1010.05 1010.48 1010.99 1011.58 1012.28 1013.08 1013.97
Thickness
5781 5781 5780 5778 5779 5779 5778 5777 5776 5776 5776 5775 5775 5774 5773 5772 5772 5771 5769 5765 5762 5760 5759 5757 5756 5755 5754 5752 5751 5749 5748 5746 5745 5743 5742 5740 5739 5737 5735 5734 5733 5732 5731
5780 5780 5779 5777 5778 5777 5777 5776 5776 5775 5776 5774 5773 5772 5771 5771 5770 5769 5769 5766 5762 5760 5758 5757 5756 5755 5754 5752 5751 5749 5748 5746 5745 5743 5742 5741 5739 5737 5735 5734 5733 5732 5731
5779 5778 5778 5777 5777 5776 5775 5775 5774 5775 5774 5773 5771 5770 5770 5769 5769 5768 5767 5766 5764 5760 5758 5757 5756 5755 5754 5752 5751 5749 5748 5746 5744 5743 5742 5741 5739 5737 5735 5734 5732 5731 5730
5778 5777 5778 5777 5775 5775 5775 5774 5774 5773 5772 5771 5769 5769 5768 5767 5767 5767 5767 5765 5763 5762 5759 5756 5755 5754 5753 5752 5750 5749 5747 5745 5744 5742 5741 5740 5738 5737 5735 5734 5732 5731 5729
5778 5778 5777 5776 5775 5775 5774 5774 5773 5772 5770 5768 5768 5767 5767 5766 5766 5766 5766 5764 5762 5760 5759 5755 5754 5752 5751 5750 5749 5747 5746 5745 5743 5742 5741 5739 5737 5736 5735 5733 5731 5730 5729
5776 5776 5776 5775 5775 5773 5771 5770 5768 5768 5768 5766 5767 5765 5765 5765 5765 5765 5764 5763 5761 5759 5757 5756 5754 5752 5750 5749 5747 5746 5745 5743 5742 5741 5739 5738 5736 5735 5734 5733 5731 5729 5728
5776 5775 5775 5774 5773 5772 5769 5769 5767 5765 5765 5765 5763 5761 5762 5763 5763 5763 5762 5761 5760 5757 5755 5753 5753 5752 5750 5747 5745 5744 5743 5741 5740 5739 5737 5736 5735 5734 5733 5731 5729 5728 5726
5775 5775 5772 5773 5773 5770 5768 5766 5765 5764 5764 5764 5761 5757 5754 5755 5757 5761 5759 5757 5756 5755 5753 5752 5751 5748 5748 5747 5744 5742 5740 5739 5737 5736 5734 5734 5733 5732 5731 5730 5728 5726 5724
5774 5773 5772 5772 5771 5771 5768 5765 5764 5761 5760 5762 5761 5757 5753 5750 5752 5755 5754 5754 5752 5751 5751 5749 5747 5745 5745 5744 5742 5739 5737 5736 5734 5733 5731 5730 5730 5729 5728 5727 5726 5724 5722
5773 5772 5771 5770 5769 5770 5767 5766 5764 5762 5759 5758 5758 5757 5756 5754 5748 5746 5749 5750 5748 5746 5746 5747 5745 5743 5742 5740 5738 5736 5734 5732 5731 5729 5728 5727 5726 5726 5725 5724 5723 5722 5720
5772 5770 5769 5768 5767 5767 5765 5763 5761 5760 5759 5757 5756 5755 5753 5751 5750 5745 5741 5742 5743 5743 5743 5741 5741 5740 5739 5737 5735 5733 5730 5728 5726 5725 5724 5723 5722 5722 5721 5720 5719 5718 5716
5771 5769 5768 5766 5765 5765 5763 5761 5760 5759 5757 5755 5754 5754 5752 5749 5747 5745 5740 5737 5737 5739 5739 5738 5737 5736 5735 5733 5732 5729 5726 5724 5722 5721 5719 5718 5717 5717 5716 5715 5714 5713 5712
5770 5767 5767 5765 5764 5762 5761 5760 5758 5757 5755 5752 5751 5751 5751 5749 5747 5744 5740 5737 5734 5735 5734 5734 5734 5733 5731 5729 5727 5725 5722 5720 5718 5716 5714 5713 5713 5712 5710 5709 5709 5708 5707
5770 5768 5765 5763 5762 5760 5760 5757 5757 5755 5753 5751 5750 5748 5747 5747 5746 5743 5739 5734 5730 5730 5730 5729 5731 5729 5727 5725 5723 5720 5719 5716 5713 5711 5710 5708 5708 5706 5705 5704 5703 5703 5702
5769 5766 5764 5762 5760 5758 5756 5754 5753 5751 5750 5749 5748 5745 5743 5743 5743 5742 5739 5735 5729 5724 5723 5725 5725 5724 5722 5720 5718 5717 5716 5712 5709 5707 5705 5704 5702 5701 5700 5698 5697 5697 5697
5766 5764 5762 5760 5758 5755 5753 5751 5751 5748 5745 5744 5742 5740 5738 5739 5737 5737 5735 5734 5731 5726 5722 5723 5721 5720 5718 5717 5714 5713 5711 5708 5705 5702 5700 5699 5697 5696 5695 5693 5692 5692 5691
5763 5761 5759 5757 5754 5752 5750 5748 5747 5744 5742 5739 5738 5736 5733 5733 5732 5732 5730 5729 5726 5724 5718 5718 5718 5716 5712 5710 5709 5708 5707 5705 5704 5699 5697 5695 5693 5692 5691 5689 5688 5687 5686
5761 5759 5756 5754 5752 5750 5747 5745 5742 5741 5738 5735 5733 5731 5729 5729 5726 5725 5723 5722 5720 5718 5714 5710 5710 5710 5707 5706 5704 5703 5704 5703 5701 5697 5694 5692 5691 5689 5687 5685 5684 5682 5681
5758 5756 5753 5750 5748 5746 5744 5741 5739 5737 5735 5732 5730 5727 5725 5723 5720 5719 5717 5716 5715 5714 5710 5707 5706 5705 5703 5702 5700 5699 5700 5698 5698 5695 5692 5690 5688 5686 5684 5682 5680 5678 5677
5754 5752 5750 5748 5745 5743 5740 5738 5736 5733 5731 5728 5726 5723 5721 5718 5715 5713 5712 5710 5709 5707 5704 5703 5702 5701 5698 5697 5695 5694 5693 5693 5692 5693 5690 5688 5685 5682 5680 5678 5676 5674 5672
5752 5748 5746 5744 5741 5739 5737 5734 5730 5729 5725 5723 5721 5719 5717 5713 5710 5707 5708 5705 5703 5702 5701 5699 5697 5696 5694 5691 5690 5690 5688 5688 5687 5687 5686 5685 5683 5680 5678 5675 5672 5670 5668
5747 5744 5741 5739 5737 5736 5731 5726 5724 5723 5721 5718 5715 5713 5712 5709 5704 5701 5699 5697 5696 5695 5694 5693 5693 5691 5689 5688 5686 5685 5683 5681 5679 5682 5680 5679 5679 5677 5676 5674 5671 5667 5665
5741 5738 5736 5734 5731 5728 5723 5719 5716 5716 5715 5713 5710 5708 5708 5707 5701 5699 5696 5692 5691 5689 5687 5687 5687 5686 5685 5684 5681 5680 5677 5676 5675 5677 5673 5673 5674 5673 5673 5671 5667 5664 5661
5736 5733 5730 5729 5725 5722 5716 5712 5710 5709 5709 5708 5706 5703 5700 5699 5697 5693 5692 5690 5689 5687 5684 5682 5682 5682 5682 5679 5677 5676 5674 5672 5671 5671 5670 5668 5670 5669 5670 5666 5663 5660 5657
5731 5728 5725 5723 5719 5715 5710 5706 5702 5704 5703 5702 5700 5697 5694 5692 5688 5684 5684 5683 5681 5681 5679 5677 5676 5675 5673 5672 5670 5670 5668 5666 5665 5666 5666 5664 5664 5664 5664 5662 5660 5657 5654
5725 5722 5720 5717 5714 5710 5704 5700 5695 5699 5697 5695 5694 5692 5687 5683 5679 5676 5676 5675 5673 5673 5673 5672 5670 5669 5669 5667 5664 5663 5664 5661 5660 5660 5662 5659 5659 5658 5657 5659 5658 5655 5652